Weather History for KBDE - October, 2013

Change the Weather History Date:

Friday, October 4, 2013

  Actual Average Record
Temperature  
Mean Temperature 46 °F -  
Max Temperature 51 °F 60 °F 82 °F (2011)
Min Temperature 43 °F 37 °F 22 °F (1936)
Degree Days  
Heating Degree Days 18    
Moisture  
Dew Point 41 °F    
Average Humidity 82    
Maximum Humidity 90    
Minimum Humidity 74    
Precipitation  
Precipitation 0.00 in - - ()
Sea Level Pressure  
Sea Level Pressure 30.24 in    
Wind  
Wind Speed 10 mph (NNE)    
Max Wind Speed 15 mph    
Max Gust Speed 22 mph    
Visibility 10 miles    
Events      
Averages and records for this station are not official NWS values.
T = Trace of Precipitation, MM = Missing Value Source: NWS Daily Summary

Daily Weather History Graph

Daily Weather History Graph

Search for Another Location

Airport or City:

Trip Planner

Search our weather history database for the weather conditions in past years. The results will help you decide how hot, cold, wet, or windy it might be!

Date:

Astronomy

Oct. 04, 2013 Rise Set
Actual Time 7:22 AM CDT 6:50 PM CDT
Civil Twilight 6:51 AM CDT 7:21 PM CDT
Nautical Twilight 6:14 AM CDT 7:58 PM CDT
Astronomical Twilight 5:37 AM CDT 8:35 PM CDT
Moon 7:00 AM CDT (10/4) 6:30 PM CDT (10/4)
Length of Visible Light 12h 30m
Length of Day
11h 27m
Waning Crescent, 0% of the Moon is Illuminated
Oct 4
Waning Crescent
Oct 4
New
Oct 11
First Quarter
Oct 18
Full
Oct 26
Last Quarter

Hourly Weather History & Observations

Time (CDT) Temp. Windchill Dew Point Humidity Pressure Visibility Wind Dir Wind Speed Gust Speed Precip Events Conditions
12:53 AM 48.0 °F - 45.0 °F 89% 30.16 in 10.0 mi North 8.1 mph - N/A   Clear
1:53 AM 46.9 °F - 43.0 °F 86% 30.17 in 10.0 mi North 10.4 mph - N/A   Clear
2:53 AM 45.0 °F 39.7 °F 42.1 °F 90% 30.19 in 10.0 mi North 10.4 mph - N/A   Clear
3:53 AM 44.1 °F 39.0 °F 39.9 °F 85% 30.19 in 10.0 mi NNE 9.2 mph - N/A   Clear
4:53 AM 43.0 °F 38.8 °F 39.9 °F 89% 30.21 in 10.0 mi North 6.9 mph - N/A   Clear
5:53 AM 43.0 °F 38.2 °F 39.9 °F 89% 30.23 in 10.0 mi NNE 8.1 mph - N/A   Clear
6:53 AM 43.0 °F 38.8 °F 39.9 °F 89% 30.25 in 10.0 mi North 6.9 mph - N/A   Scattered Clouds
7:53 AM 43.0 °F 38.8 °F 39.9 °F 89% 30.26 in 10.0 mi NNE 6.9 mph - N/A   Overcast
8:53 AM 46.0 °F 40.6 °F 41.0 °F 83% 30.26 in 10.0 mi NNE 11.5 mph 20.7 mph N/A   Clear
9:46 AM 46.4 °F 42.4 °F 42.8 °F 87% 30.26 in 10.0 mi NNE 8.1 mph - N/A   Mostly Cloudy
9:53 AM 46.9 °F - 42.1 °F 83% 30.28 in 10.0 mi NNE 9.2 mph - N/A   Overcast
10:53 AM 48.0 °F - 42.1 °F 80% 30.27 in 10.0 mi NNE 12.7 mph 19.6 mph N/A   Overcast
11:53 AM 48.9 °F - 42.1 °F 77% 30.27 in 10.0 mi North 10.4 mph - N/A   Overcast
12:53 PM 50.0 °F - 42.1 °F 74% 30.27 in 10.0 mi NNE 10.4 mph - N/A   Overcast
1:53 PM 50.0 °F - 43.0 °F 77% 30.25 in 10.0 mi North 12.7 mph - N/A   Mostly Cloudy
2:53 PM 48.9 °F - 42.1 °F 77% 30.24 in 10.0 mi North 12.7 mph - N/A   Mostly Cloudy
3:53 PM 48.9 °F - 42.1 °F 77% 30.25 in 10.0 mi NNE 12.7 mph - N/A   Clear
4:53 PM 48.0 °F - 41.0 °F 77% 30.26 in 10.0 mi North 15.0 mph 19.6 mph N/A   Scattered Clouds
5:53 PM 48.0 °F - 41.0 °F 77% 30.25 in 10.0 mi NNE 13.8 mph - N/A   Clear
6:53 PM 46.9 °F - 39.9 °F 77% 30.24 in 10.0 mi NNE 12.7 mph 21.9 mph N/A   Mostly Cloudy
7:53 PM 46.0 °F 40.6 °F 39.9 °F 79% 30.25 in 10.0 mi NNE 11.5 mph - N/A   Mostly Cloudy
8:53 PM 45.0 °F 39.3 °F 39.0 °F 80% 30.24 in 10.0 mi NNE 11.5 mph - N/A   Overcast
9:53 PM 45.0 °F 39.3 °F 39.0 °F 80% 30.25 in 10.0 mi NE 11.5 mph - N/A   Overcast
10:53 PM 45.0 °F 38.9 °F 37.0 °F 74% 30.24 in 10.0 mi NE 12.7 mph - N/A   Overcast
11:53 PM 44.1 °F 37.4 °F 37.0 °F 76% 30.20 in 10.0 mi NE 13.8 mph - 0.00 in   Overcast